User: anonymous   Login
Location: Peach Mountain Observatory
(42.3967°N, 83.9367°W)
Time: 12:10:17
(UTC-05:00)
Language:

A-11 Canister half - Orbit

View from above orbital plane
View from above orbital plane
View from above satellite
View from above satellite

Ground track
Ground track

The orbit data is extracted from the following two-line orbital elements,

1    51U 60009C   20020.26507781 -.00000155  00000-0 -66897-3 0  9993
2    51  47.2135  88.9666 0104532  80.8140 280.4456 12.18271576645890
Epoch (UTC): 20 January 2020 06:21:42
Eccentricity: 0.0104532
inclination: 47.2135°
perigee height: 1516 km
apogee height: 1683 km
right ascension of ascending node: 88.9666°
argument of perigee: 80.8140°
revolutions per day: 12.18271576
mean anomaly at epoch: 280.4456°
orbit number at epoch: 64589

The dashed part of the orbit path shows where the satellite is in the earth's shadow,  

DLR